{"data":{"norad_id":61862,"epoch":"2026-09-21T21:26:05.224992Z","epoch_age_seconds":68145,"freshness":"FRESH","line1":"1 61862U 24202T   26264.89311603 -.00000774  00000+0 -18624-4 0  9998","line2":"2 61862  43.0002 210.0017 0000783 240.0319 120.0455 15.27586862105342","mean_motion":15.27586862,"eccentricity":7.83e-5,"inclination_deg":43.0002,"raan_deg":210.0017,"arg_perigee_deg":240.0319,"mean_anomaly_deg":120.0455,"bstar":-1.8624e-5,"rev_number":10534,"period_min":94.266325262491,"perigee_km":482.4913195575,"apogee_km":483.56577808245,"semimajor_km":6861.16554882,"source":"CELESTRAK","updated_at":"2026-09-22T09:00:49.443137Z"}}